Regional Weather Roundup
Issued by NWS Cleveland, OH

Home | Current Version | Previous Version | Text Only | Print | Product List | Glossary Off
Versions: 1 2 3 4 5 6 7 8 9 10 11 12 13 14 15 16 17 18 19 20 21 22 23 24 25 26 27 28 29 30 31 32 33 34 35 36 37 38 39 40 41 42 43 44 45 46 47 48 49 50

450
ASUS41 KCLE 161700
RWRCLE
OHIO REGIONAL WEATHER ROUNDUP
NATIONAL WEATHER SERVICE WILMINGTON, OH
100 PM EDT MON OCT 16 2017

NOTE: "FAIR" INDICATES FEW OR NO CLOUDS BELOW 12,000 FEET WITH NO
SIGNIFICANT WEATHER AND/OR OBSTRUCTIONS TO VISIBILITY.

OHZ001>008-015>018-024>027-034-035-043-044-161800-
   NORTHWEST OHIO

CITY           SKY/WX    TMP DP  RH WIND       PRES   REMARKS
DEFIANCE       PTSUNNY   54  41  61 NW5       30.31F
FINDLAY        PTSUNNY   55  41  59 N8        30.30F
TOLEDO EXPRESS FAIR      56  40  55 W8        30.30F
TOLEDO EXEC    FAIR      55  34  45 W8        30.31F
LIMA           FAIR      55  43  63 NW7       30.31S
$$

OHZ009>014-019>023-028>033-038-089-161800-
   NORTHEAST OHIO

CITY           SKY/WX    TMP DP  RH WIND       PRES   REMARKS
CLE-HOPKINS    FAIR      57  37  47 NW12      30.30S
CLE-LAKEFRONT  FAIR      53  36  52 NW9       30.28R
CUY CO. ARPT   NOT AVBL
LORAIN-ELYRIA  FAIR      53  33  46 NW9       30.30R
ASHTABULA      PTSUNNY   53  41  63 N10G22    30.26S
AKRON-CANTON   FAIR      57  35  43 NW8       30.26S
WOOSTER        NOT AVBL
MANSFIELD      FAIR      53  36  52 NW8       30.29S
YOUNGSTOWN     PTSUNNY   55  38  52 MISG      30.23S
$$

OHZ042-051>053-060>062-070>072-077>081-161800-
  SOUTHWEST OHIO

CITY           SKY/WX    TMP DP  RH WIND       PRES   REMARKS
CINC-COVINGTON FAIR      59  44  57 N10       30.33R
CINC-LUNKEN    PTSUNNY   59  44  57 NW10      30.34S
HAMILTON       FAIR      59  43  55 NW8       30.34S
DAYTON         NOT AVBL
WRIGHT-PAT AFB NOT AVBL
DAYTON GENERAL PTSUNNY   57  40  52 NW6       30.32S
WILMINGTON     PTSUNNY   55  41  59 NW10      30.32S
$$

OHZ036-037-039>041-045>050-054>059-063>069-073>076-082>088-161800-
  CENTRAL AND SOUTHEAST OHIO

CITY           SKY/WX    TMP DP  RH WIND       PRES   REMARKS
COLUMBUS       FAIR      55  41  59 N14       30.30S
OSU AIRPORT    FAIR      56  42  59 N8        30.30S
BOLTON FIELD   PTSUNNY   55  43  62 N9        30.31S
RICKENBACK AFB NOT AVBL
NEWARK         FAIR      57  37  47 NW10      30.29S
MARION         PTSUNNY   54  37  52 N10G16    30.30F
LANCASTER      FAIR      58  41  53 NW12      30.30S
ZANESVILLE     FAIR      57  39  51 W7        30.28S
NEW PHILLY     FAIR      58  37  45 NW8G17    30.27S
$$




USA.gov is the U.S. government's official web portal to all federal, state and local government web resources and services.